IRNSS-1G (41469 NORAD) Tracking and Keplerian Element Data

This shows tracking and keplerian element data for the satellite.

Feedback or suggestion? Click here.




ElementValue
Catalog41469
NameIRNSS-1G
Epoch Orbit970
Epoch Day348.10660575
Epoch Year2018
RAAN250.2735
Inclination3.1186
Eccentricity0.0002352
Argument of Perigee231.3152
Mean Anonmoly129.0709
Mean Motion1.00274156
Decay Rate-3.23E-06
L11 41469U 16027A 18348.10660575 -.00000323 00000-0 00000+0 0 9992
L22 41469 3.1186 250.2735 0002352 231.3152 129.0709 1.00274156 9708

Live tracking and technical data element details for IRNSS-1G (NORAD 41469). IRNSS-1G can be tracked NOW for your location showing map with azimuth and elevation plus other details from your city location.

Track the satellite on the map from your city or location and see movement details for azimuth, elevation, latitude, longitude, range, height, and movement on the map or in text.







IsCatalogInMostPopularTable: catalog: 41469, numindb: 117
Update: records affected: 1



GetName: 41469 IRNSS-1G

Hit Count: updated at: Sat, 15 Dec 2018 14:12:16 GMT